Satellite-Ground Cal/Val Region Overpasses Predictions

Prediction of Satellite NPP Overpassing Cal/Val Region: PacNW

Region Location: (Latitude: 10.00, Longitude: 139.50) to (Latitude: 22.70, Longitude: 165.60).

Table of predicted overpasses for the next 14.0 days since TLE Epoch: 11/28/2023
Interval Starting Time Starting Location Ending Time Ending Location
1 11/28/2023 02:33:36 ( 10.05, 161.43) 11/28/2023 02:37:11 ( 22.68, 158.43)
2 11/28/2023 15:05:29 ( 22.64, 158.66) 11/28/2023 15:09:04 ( 10.02, 155.66)
3 11/29/2023 02:15:17 ( 12.63, 165.60) 11/29/2023 02:18:08 ( 22.67, 163.19)
4 11/29/2023 03:56:03 ( 10.06, 140.82) 11/29/2023 03:57:39 ( 15.70, 139.51)
5 11/29/2023 14:46:26 ( 22.65, 163.42) 11/29/2023 14:50:01 ( 10.02, 160.42)
6 11/30/2023 03:37:01 ( 10.05, 145.58) 11/30/2023 03:40:36 ( 22.67, 142.58)
7 11/30/2023 14:30:28 ( 11.85, 165.60) 11/30/2023 14:30:59 ( 10.03, 165.18)
8 11/30/2023 16:08:54 ( 22.64, 142.80) 11/30/2023 16:12:29 ( 10.02, 139.80)
9 12/01/2023 03:17:58 ( 10.05, 150.34) 12/01/2023 03:21:33 ( 22.67, 147.34)
10 12/01/2023 15:49:51 ( 22.64, 147.56) 12/01/2023 15:53:26 ( 10.02, 144.56)
11 12/02/2023 02:58:56 ( 10.05, 155.10) 12/02/2023 03:02:31 ( 22.67, 152.09)
12 12/02/2023 15:30:49 ( 22.64, 152.32) 12/02/2023 15:34:24 ( 10.02, 149.32)
13 12/03/2023 02:39:54 ( 10.05, 159.85) 12/03/2023 02:43:29 ( 22.67, 156.85)
14 12/03/2023 15:11:45 ( 22.70, 157.10) 12/03/2023 15:15:21 ( 10.02, 154.08)
15 12/04/2023 02:20:51 ( 10.05, 164.61) 12/04/2023 02:24:26 ( 22.68, 161.61)
16 12/04/2023 14:52:43 ( 22.69, 161.86) 12/04/2023 14:56:19 ( 10.01, 158.84)
17 12/05/2023 03:43:18 ( 10.01, 144.01) 12/05/2023 03:46:54 ( 22.69, 140.99)
18 12/05/2023 14:34:51 ( 18.52, 165.59) 12/05/2023 14:37:16 ( 10.01, 163.60)
19 12/05/2023 16:15:10 ( 22.68, 141.24) 12/05/2023 16:17:12 ( 15.52, 139.50)
20 12/06/2023 03:24:15 ( 10.02, 148.77) 12/06/2023 03:27:51 ( 22.70, 145.75)
21 12/06/2023 15:56:08 ( 22.67, 145.99) 12/06/2023 15:59:43 ( 10.05, 142.99)
22 12/07/2023 03:05:13 ( 10.03, 153.52) 12/07/2023 03:08:48 ( 22.65, 150.52)
23 12/07/2023 15:37:05 ( 22.66, 150.75) 12/07/2023 15:40:40 ( 10.04, 147.75)
24 12/08/2023 02:46:10 ( 10.04, 158.28) 12/08/2023 02:49:45 ( 22.66, 155.28)
25 12/08/2023 15:18:03 ( 22.65, 155.51) 12/08/2023 15:21:38 ( 10.03, 152.51)
26 12/09/2023 02:27:08 ( 10.05, 163.04) 12/09/2023 02:30:43 ( 22.67, 160.04)
27 12/09/2023 14:58:59 ( 22.69, 160.28) 12/09/2023 15:02:35 ( 10.01, 157.27)
28 12/10/2023 02:10:45 ( 19.46, 165.59) 12/10/2023 02:11:40 ( 22.69, 164.79)
29 12/10/2023 03:49:34 ( 10.02, 142.43) 12/10/2023 03:53:04 ( 22.35, 139.51)
30 12/10/2023 14:39:57 ( 22.68, 165.04) 12/10/2023 14:43:32 ( 10.06, 162.04)
31 12/10/2023 16:21:27 ( 22.67, 139.66) 12/10/2023 16:21:37 ( 22.08, 139.51)
32 12/11/2023 03:30:32 ( 10.03, 147.19) 12/11/2023 03:34:07 ( 22.66, 144.19)
